Back to catalog

STARLINK-11145

AliveCommunicationsVLEO
NORAD 59945·PAYLOAD·🇺🇸 United States

Launched Jun 5, 2024 from Cape Canaveral Space Force Station

Loading…

Next Passes (next 24 hours)

TLE

FreshSource: CelesTrak SupGP

Epoch: Sep 14, 2026, 20:34 UTC

1 59945C 24107A   26257.85743056  .00069014  00000+0  56855-3 0  2574
2 59945  53.1576  39.0481 0001144  69.5510 256.2012 15.69672494    14

Track STARLINK-11145 in real time with AllMySat

Download on the App Store